Temp
41 49 50 51 53 54 51 54 48 49 51 55 60 58 56 55 54 56 56 57 59 58 57 56 57 58 60 61 61 60 61 61 61 60 61 60 60 60 60 61 61 62 62 62
37 48 51 50 53 55 56 56 55 52 54 61 59 58 57 58 58 58 58 60 60 60 59 57 59 59 60 61 60 61 61 62 62 61 62 61 60 60 60 61 61 62 62 62
30 40 47 42 52 52 54 58 59 51 63 57 57 59 58 57 59 60 61 61 61 61 61 60 61 61 59 60 60 60 61 63 63 62 63 61 61 60 60 59 60 61 61 62
29 36 32 46 49 56 56 46 47 56 55 59 63 65 63 64 62 62 63 63 63 63 62 60 61 60 61 61 60 61 61 63 63 64 63 62 61 60 58 58 59 59 59 61
27 28 43 43 44 41 41 40 45 45 48 50 54 61 59 64 65 67 65 66 66 66 64 59 61 62 61 60 60 61 62 62 63 64 62 61 60 58 58 57 57 58 59 60
30 27 32 39 46 52 50 40 46 47 46 47 50 55 60 63 66 65 65 67 66 65 64 62 62 61 60 60 59 61 62 63 63 64 62 61 59 58 58 58 58 59 59 60
29 26 37 46 49 52 39 37 46 48 47 48 46 55 54 60 66 69 67 67 65 65 64 63 61 63 61 59 60 64 65 64 63 62 61 61 58 58 58 57 57 57 57 57
35 33 34 49 48 39 45 46 48 49 49 49 50 54 56 61 64 65 65 66 67 65 65 64 63 64 62 60 64 64 64 64 62 61 65 62 59 58 58 57 56 55 55 56
36 36 47 52 50 53 52 46 49 48 52 52 51 53 55 60 64 67 67 69 69 68 65 64 64 67 63 63 62 63 62 61 60 60 62 61 60 58 58 57 57 55 57 57
38 41 43 48 54 55 55 50 52 53 53 54 51 55 55 59 63 66 68 69 69 67 65 63 65 67 68 64 66 65 62 60 59 59 59 60 62 61 60 58 57 58 58 57
38 42 45 52 53 54 54 53 53 54 55 55 54 56 55 57 63 68 69 69 70 68 66 66 66 67 66 66 66 64 62 61 59 60 60 60 61 60 63 62 61 60 60 60
36 43 42 46 52 55 53 52 53 53 53 57 57 57 59 58 61 66 67 69 69 69 66 67 68 68 66 68 67 64 62 61 60 61 60 61 60 57 44 47 48 46 47 57
42 49 47 50 54 56 54 55 54 54 54 54 58 58 60 58 58 63 68 68 70 69 69 68 69 69 69 69 68 65 64 61 61 60 62 61 61 61 59 54 45 45 45 46
49 49 47 51 50 55 57 57 55 55 56 56 58 60 60 59 59 65 68 71 72 72 71 69 69 70 70 71 69 67 66 54 62 63 64 64 63 64 64 62 60 59 46 48
47 48 47 51 53 55 57 55 54 54 54 55 58 59 60 58 58 61 66 69 69 70 72 71 71 70 71 72 70 68 67 64 66 65 64 62 64 64 64 63 63 59 54 47
46 47 48 48 49 50 52 54 53 54 55 56 55 57 59 59 59 60 62 68 68 68 70 71 71 72 72 72 70 69 68 58 60 65 64 63 63 63 63 61 61 60 59 61
41 41 43 43 45 47 48 51 53 54 55 55 56 57 58 59 59 58 59 61 66 66 67 69 70 72 73 72 70 71 71 64 60 66 65 66 64 64 63 64 63 62 62 58
46 45 46 45 45 46 47 49 52 54 54 57 57 58 57 56 55 56 58 59 63 62 63 64 68 71 72 72 72 73 70 66 66 68 67 66 65 65 63 64 64 63 63 56
49 48 47 48 48 46 47 48 50 52 54 57 57 56 57 57 57 58 58 59 62 61 60 62 51 62 68 66 67 73 69 66 66 67 66 58 61 64 64 64 64 63 63 57
49 50 50 49 50 49 47 49 50 51 53 54 56 55 56 57 57 59 58 58 59 60 61 59 64 65 66 63 52 73 68 66 66 66 65 64 64 63 62 54 64 62 59 60
49 49 49 49 49 50 49 51 50 49 51 53 54 55 55 57 57 58 57 57 60 56 57 50 61 62 61 58 59 72 68 65 65 64 64 63 63 63 61 61 62 61 61 62
48 49 49 49 49 49 50 50 51 50 51 51 54 56 56 55 56 57 58 56 57 43 55 61 53 42 48 47 63 70 67 65 65 65 63 63 63 62 60 60 61 60 61 62
46 48 49 48 48 49 50 50 49 50 50 51 52 54 54 53 54 54 57 58 55 51 56 55 41 39 39 57 58 63 63 64 62 63 63 63 62 62 61 60 60 59 59 58
46 48 48 49 49 48 47 49 49 49 50 51 51 54 53 52 53 54 56 48 41 46 53 50 47 41 46 59 58 58 61 63 64 61 59 48 59 59 60 59 58 59 59 52
44 46 48 47 46 46 47 47 49 47 48 48 49 52 54 54 53 55 54 55 42 47 57 39 40 40 59 60 59 59 58 59 58 58 57 57 57 57 57 57 57 56 55 54
43 44 47 47 47 47 46 46 45 47 49 49 50 51 51 53 55 54 55 49 54 48 56 55 56 58 58 58 58 57 55 52 55 55 54 53 53 52 50 50 49 50 50 50
43 43 46 47 48 48 46 45 44 45 46 48 50 52 52 53 54 52 47 53 54 55 55 55 54 52 56 55 54 54 54 53 49 53 52 51 50 49 48 48 47 48 48 47
MSLP
1001.09 999.44 998.54 997.77 997.86 998.54 999.05 999.02 999.62 998.66 998.35 997.61 997.28 997.41 998.04 998.61 999.90 1000.79 1001.55 1002.08 1002.40 1003.15 1003.76 1004.50 1004.98 1005.42 1005.78 1005.99 1006.39 1006.79 1007.22 1007.62 1007.86 1008.20 1008.46 1008.77 1008.92 1009.12 1009.42 1009.73 1010.03 1010.22 1010.45 1010.77
1002.22 1000.29 998.85 998.56 997.99 997.92 997.78 998.56 998.98 998.55 997.57 996.67 996.77 997.25 998.15 998.33 999.31 1000.13 1000.81 1001.44 1002.03 1002.67 1003.28 1004.14 1004.55 1005.08 1005.63 1005.95 1006.34 1006.73 1007.13 1007.55 1007.90 1008.24 1008.54 1008.92 1009.10 1009.29 1009.59 1009.82 1010.08 1010.32 1010.53 1010.83
1003.43 1001.70 999.91 998.94 997.63 997.99 998.28 998.34 998.24 998.52 996.38 997.14 997.21 997.29 997.32 997.65 998.44 999.13 999.82 1000.52 1001.23 1001.90 1002.58 1003.40 1003.96 1004.54 1005.32 1005.77 1006.21 1006.65 1006.99 1007.45 1007.85 1008.20 1008.55 1009.03 1009.26 1009.54 1009.80 1010.13 1010.25 1010.49 1010.81 1011.03
1004.66 1002.37 1000.73 999.19 998.39 997.82 998.33 999.88 999.46 998.82 998.12 997.26 996.33 995.76 995.56 995.95 996.90 998.03 999.01 999.91 1000.49 1001.23 1002.16 1002.92 1003.50 1004.19 1004.78 1005.53 1006.10 1006.52 1006.97 1007.33 1007.76 1008.05 1008.51 1009.04 1009.51 1009.90 1010.11 1010.36 1010.60 1010.81 1011.07 1011.26
1005.23 1003.34 1000.86 1000.39 1001.09 1001.61 1001.02 1001.98 1001.91 1001.10 1000.07 999.22 997.91 996.91 995.67 995.57 995.74 996.22 997.19 998.23 999.13 1000.11 1001.23 1002.28 1003.03 1003.67 1004.59 1005.44 1005.99 1006.41 1006.80 1007.20 1007.62 1008.04 1008.47 1009.00 1009.49 1009.99 1010.31 1010.53 1010.87 1011.10 1011.22 1011.49
1005.39 1004.33 1002.74 1003.78 1002.20 1001.74 1001.98 1002.84 1002.79 1002.48 1001.69 1000.70 999.23 998.18 996.00 995.03 995.42 996.22 997.10 997.93 998.70 999.79 1000.88 1001.80 1002.65 1003.32 1004.32 1005.11 1005.81 1006.20 1006.44 1006.75 1007.28 1007.81 1008.25 1008.89 1009.36 1009.87 1010.28 1010.60 1010.88 1011.27 1011.59 1011.71
1005.73 1004.74 1003.63 1003.51 1001.87 1000.67 1002.69 1004.44 1003.42 1002.95 1002.32 1001.39 1000.43 998.40 997.44 996.56 994.91 995.15 995.85 997.04 998.28 999.37 1000.19 1000.92 1002.12 1002.95 1003.93 1004.63 1005.24 1005.49 1005.92 1006.47 1007.11 1007.60 1008.05 1008.51 1009.23 1009.76 1010.16 1010.69 1011.14 1011.57 1011.89 1012.13
1005.76 1005.04 1004.49 1003.61 1002.47 1003.14 1004.78 1004.27 1003.74 1003.01 1002.25 1001.27 1000.25 998.78 997.60 996.52 995.90 994.92 995.69 996.93 997.85 998.74 999.75 1000.51 1001.53 1002.42 1003.45 1004.11 1004.36 1005.14 1005.71 1006.31 1006.95 1007.46 1007.86 1008.54 1009.13 1009.70 1010.19 1010.62 1011.25 1011.71 1012.11 1012.53
1006.91 1006.06 1005.17 1004.68 1004.44 1004.36 1004.39 1004.24 1003.51 1002.76 1001.78 1000.97 999.96 998.61 997.31 996.05 995.34 995.38 994.91 995.81 996.77 997.87 999.15 1000.10 1000.78 1001.47 1002.51 1003.15 1004.06 1004.84 1005.58 1006.12 1006.77 1007.38 1007.89 1008.35 1009.02 1009.68 1010.38 1010.70 1011.15 1011.78 1012.09 1012.40
1006.96 1006.14 1005.33 1004.62 1004.20 1004.23 1003.97 1003.75 1003.15 1002.45 1001.65 1000.76 999.86 998.51 997.14 995.66 994.94 994.90 994.91 995.29 996.11 997.37 998.45 999.43 1000.17 1000.68 1001.03 1002.40 1003.41 1004.42 1005.31 1005.93 1006.49 1007.24 1007.91 1008.39 1008.84 1009.39 1010.04 1010.68 1011.19 1011.55 1012.03 1012.43
1006.93 1006.27 1005.07 1004.09 1004.21 1004.04 1003.54 1003.32 1002.81 1002.21 1001.39 1000.41 999.57 998.21 997.20 995.85 994.60 994.20 994.75 994.81 995.48 996.40 997.39 998.28 999.42 1000.24 1000.95 1001.73 1002.82 1003.95 1004.81 1005.60 1006.31 1006.90 1007.53 1008.25 1008.76 1009.26 1009.57 1009.87 1010.19 1010.95 1011.35 1011.73
1006.77 1006.55 1006.54 1005.13 1004.49 1004.04 1003.61 1003.12 1002.58 1002.03 1000.95 999.88 999.00 997.96 996.95 995.95 994.40 993.94 994.10 994.91 994.87 995.64 996.64 997.56 998.52 999.40 1000.31 1001.03 1001.91 1003.08 1004.34 1005.17 1005.84 1006.49 1007.18 1007.80 1008.55 1009.42 1009.69 1009.67 1009.85 1010.21 1010.44 1010.83
1006.54 1006.05 1006.06 1005.08 1004.71 1003.90 1003.46 1002.91 1002.42 1001.91 1001.13 1000.18 998.66 998.01 996.98 995.56 994.38 993.69 993.57 994.18 994.66 994.37 995.29 996.48 997.54 998.42 999.31 1000.13 1001.13 1002.07 1003.06 1004.23 1005.11 1005.81 1006.48 1007.16 1007.87 1008.51 1009.27 1010.00 1009.94 1010.20 1010.49 1010.89
1006.43 1006.46 1006.07 1005.18 1004.56 1003.92 1003.38 1002.69 1002.29 1001.73 1000.92 999.98 998.72 997.31 996.62 995.55 994.49 993.58 992.88 992.92 993.58 994.38 994.70 995.67 996.69 997.37 998.16 999.16 1000.18 1001.15 1002.08 1003.06 1004.16 1005.00 1005.66 1006.27 1006.85 1007.40 1008.04 1008.75 1009.51 1010.18 1010.47 1010.71
1006.51 1006.50 1006.06 1005.30 1004.30 1003.79 1003.19 1002.57 1002.02 1001.36 1000.42 999.69 998.69 997.94 997.11 995.65 995.02 993.98 992.89 992.80 993.48 994.25 995.03 995.04 995.91 996.58 997.42 998.26 999.21 1000.25 1001.27 1002.24 1002.96 1003.93 1004.73 1005.36 1006.03 1006.65 1007.16 1007.77 1008.36 1009.12 1010.07 1010.65
1006.92 1006.52 1006.08 1005.61 1004.74 1004.31 1003.63 1002.77 1002.13 1001.28 1000.61 1000.05 999.39 998.45 997.03 996.33 995.24 994.14 993.47 992.93 993.27 993.65 994.09 995.05 994.93 995.33 996.21 997.19 998.26 999.38 1000.21 1000.93 1001.97 1003.00 1003.97 1004.74 1005.28 1005.81 1006.39 1007.00 1007.61 1008.24 1008.98 1009.42
1007.30 1006.71 1006.00 1005.54 1004.86 1004.32 1003.96 1003.23 1002.39 1001.61 1000.69 1000.15 999.79 998.99 997.63 997.00 995.97 994.90 994.60 993.74 993.37 993.18 993.58 994.09 994.68 995.48 996.16 996.22 997.27 998.17 999.25 1000.40 1001.11 1002.13 1002.92 1003.49 1004.26 1004.81 1005.40 1005.95 1006.47 1007.14 1007.62 1008.30
1006.69 1006.20 1005.96 1005.78 1005.62 1005.18 1003.92 1003.05 1002.33 1001.51 1000.85 1000.06 999.65 998.92 998.10 997.25 996.65 995.90 995.26 994.64 994.27 994.08 994.09 994.32 994.59 995.01 995.95 996.75 997.31 997.39 998.24 999.38 1000.32 1000.91 1001.78 1002.66 1003.13 1003.74 1004.36 1004.88 1005.44 1006.08 1006.70 1007.64
1006.43 1005.55 1005.21 1005.32 1004.98 1004.30 1003.58 1002.97 1002.17 1001.31 1000.67 1000.03 999.54 999.07 998.39 997.76 996.63 996.12 995.37 995.31 995.12 994.98 994.90 994.40 994.31 994.97 995.45 995.94 996.83 997.80 998.21 998.47 999.44 1000.16 1000.84 1001.54 1002.46 1003.04 1003.53 1004.10 1004.56 1005.07 1005.68 1006.59
1005.50 1004.70 1004.12 1003.58 1003.83 1003.74 1002.78 1002.44 1001.92 1001.04 1000.46 999.93 999.21 998.98 998.50 997.62 996.70 995.86 995.28 995.35 995.33 995.09 994.95 994.70 994.21 994.60 995.80 996.09 996.44 996.77 997.40 998.44 998.23 999.20 999.99 1000.83 1001.37 1002.07 1002.64 1003.10 1003.48 1004.09 1004.77 1005.29
1004.86 1004.56 1004.26 1003.58 1002.82 1002.44 1002.09 1001.41 1000.85 1000.57 1000.10 999.78 999.35 998.78 998.42 997.43 996.58 995.73 995.45 995.03 995.08 995.38 995.34 995.16 995.46 995.03 995.32 996.37 996.74 996.73 996.92 998.06 998.21 998.36 999.21 999.98 1000.74 1001.27 1001.95 1002.38 1002.74 1003.07 1003.54 1004.06
1004.88 1004.15 1002.74 1002.34 1002.15 1001.26 1000.96 1000.61 1000.30 1000.08 999.88 999.68 999.05 998.25 997.82 997.21 996.66 995.85 995.58 995.52 994.81 995.29 994.84 994.85 994.87 994.84 995.52 996.12 995.81 997.05 996.98 997.15 998.37 997.74 998.46 999.21 999.88 1000.40 1000.97 1001.47 1002.30 1002.31 1002.68 1003.21
1004.55 1003.50 1003.02 1002.60 1002.10 1001.09 1000.17 999.57 999.85 999.36 999.80 999.34 998.41 997.72 997.28 996.96 996.72 996.62 995.55 994.74 994.78 994.58 994.70 995.19 995.40 995.55 995.60 994.98 995.77 997.16 997.79 997.37 997.13 997.92 997.61 998.45 999.06 999.59 1000.10 1000.45 1000.91 1001.75 1001.86 1002.36
1004.82 1004.10 1003.57 1002.65 1001.82 1001.08 1000.08 999.70 999.31 998.93 998.89 998.55 997.91 997.24 997.06 996.48 996.16 996.03 995.82 994.91 994.65 995.03 994.49 994.25 994.15 994.31 994.37 995.15 995.49 996.24 998.67 997.18 996.90 997.01 996.96 997.75 998.52 998.88 999.41 999.96 1000.50 1001.01 1001.22 1001.36
1004.67 1003.97 1003.26 1002.59 1001.92 1001.07 1000.10 999.40 998.98 998.58 998.12 997.29 997.34 996.58 996.02 996.03 995.94 995.28 995.26 995.03 994.40 994.35 994.57 994.41 993.74 993.44 993.84 992.49 994.12 997.55 997.19 997.45 997.70 996.12 996.74 997.68 998.22 998.67 999.12 999.71 1000.19 1000.67 1000.83 1001.09
1004.87 1004.27 1003.61 1002.96 1002.28 1001.43 1000.26 999.08 998.72 997.87 996.94 996.85 996.29 995.93 995.84 995.29 995.47 994.99 995.10 995.21 995.06 994.62 994.75 994.84 994.13 993.89 994.22 994.66 996.12 997.71 998.00 998.67 996.33 996.29 997.32 997.90 998.31 998.84 999.37 999.94 1000.42 1000.70 1001.03 1001.54
1004.99 1004.45 1003.86 1003.06 1002.36 1001.53 1000.75 1000.28 999.50 998.08 997.31 996.23 995.56 995.36 995.26 994.77 994.54 994.31 994.48 994.85 995.29 994.74 994.55 994.81 994.94 995.17 996.04 996.15 997.64 998.52 998.78 998.15 996.80 997.24 997.46 997.84 998.67 998.86 999.31 999.88 1000.40 1001.31 1001.80 1002.01
Wind_Speed
10 13 3 7 12 19 17 23 13 4 8 7 8 8 6 8 10 11 11 11 13 12 9 8 7 6 5 5 6 6 6 6 6 5 5 5 5 5 5 5 4 4 6 6
5 8 14 10 7 16 23 20 17 3 11 9 1 7 6 11 12 12 12 12 12 12 11 10 10 8 6 6 6 6 6 6 6 6 6 5 5 5 5 5 5 4 5 6
5 8 4 8 15 8 9 13 18 12 25 5 4 7 10 11 13 14 15 15 15 15 14 12 11 10 8 7 6 6 6 6 6 6 6 6 5 5 5 5 4 5 4 4
4 5 5 1 16 2 11 10 11 7 8 7 10 16 11 11 16 15 14 14 14 13 11 9 8 8 7 6 6 7 6 6 6 6 7 6 6 5 4 3 4 4 4 4
2 3 4 7 13 11 6 4 12 11 14 11 15 8 0 7 12 19 20 18 15 15 13 10 11 10 8 7 7 6 7 7 6 6 7 7 6 6 3 4 3 2 3 5
1 2 3 9 15 7 4 3 14 13 13 15 13 4 7 12 11 10 11 13 14 13 10 12 10 11 10 8 7 8 8 8 7 7 9 8 7 7 4 3 4 4 4 3
2 2 1 13 17 1 6 6 15 12 11 11 6 6 18 17 10 14 15 17 12 14 15 15 11 12 11 8 10 10 8 7 7 6 8 8 7 4 5 5 5 5 5 3
2 1 2 17 6 9 5 6 8 11 9 13 14 17 14 12 8 15 16 16 15 15 13 12 13 14 12 12 11 7 8 8 7 6 5 6 9 5 5 7 6 5 5 4
5 3 8 10 3 1 4 7 8 9 14 12 15 16 15 12 8 12 17 17 16 16 13 12 15 15 15 13 8 8 8 8 7 7 5 6 7 7 5 5 6 5 3 3
4 5 12 15 5 4 9 9 12 12 14 13 14 15 15 13 7 8 11 15 15 15 15 15 14 16 16 13 12 11 10 7 7 8 6 5 4 6 7 6 4 5 4 4
2 6 13 6 8 13 16 13 12 14 13 12 14 14 10 12 7 9 11 12 15 16 15 16 15 13 10 14 14 12 10 7 7 6 8 7 5 5 7 7 9 8 6 6
1 2 5 12 12 17 16 13 13 13 17 17 14 15 13 11 7 7 10 9 14 14 13 15 16 15 13 15 16 14 10 7 7 7 6 7 7 4 7 1 9 6 6 9
3 4 8 19 14 15 9 15 13 11 14 16 15 14 13 11 6 6 8 10 12 19 17 16 17 17 15 16 16 16 14 10 7 8 8 8 7 8 7 2 4 7 9 10
4 5 7 11 10 18 16 15 11 11 10 12 12 15 15 10 8 6 11 15 14 12 15 16 16 17 17 18 17 15 13 15 10 9 8 8 9 9 8 7 7 4 4 7
10 10 7 12 16 15 16 10 11 11 10 13 12 12 15 14 11 8 4 7 8 8 8 15 16 15 16 17 18 16 13 11 12 10 9 9 8 8 8 8 8 4 3 2
14 13 12 11 12 13 16 15 13 11 9 10 12 13 12 13 11 10 9 5 11 13 14 13 16 16 18 18 17 13 13 15 13 10 9 9 8 9 8 8 7 7 6 8
11 10 11 14 14 16 15 15 13 13 10 10 12 12 9 9 9 11 11 8 1 8 9 12 9 8 13 18 18 13 11 11 15 10 11 11 10 10 9 9 9 8 9 8
11 13 11 11 12 15 15 15 14 13 12 9 10 12 9 8 7 8 8 7 5 7 8 7 5 10 12 11 12 12 12 12 12 13 10 11 11 10 10 10 10 9 9 6
12 14 15 13 12 11 12 13 14 13 13 12 10 11 9 8 6 6 5 5 1 4 2 5 12 8 9 11 12 7 8 12 12 11 11 10 8 9 10 10 10 10 9 7
11 11 14 16 14 12 12 12 14 14 14 13 11 8 10 8 7 6 5 4 1 3 6 4 9 10 5 6 11 9 11 11 14 12 10 10 11 11 10 11 11 10 9 9
13 12 13 15 14 13 12 12 11 13 14 12 11 9 10 9 7 6 5 4 1 3 6 9 4 9 7 3 5 8 8 9 11 11 11 11 10 10 9 10 11 10 10 10
10 12 12 13 15 14 13 11 10 10 13 12 13 10 9 8 7 4 3 4 7 4 1 4 8 11 7 7 5 6 7 9 8 9 9 10 10 10 10 9 9 9 8 8
8 11 12 13 14 15 11 9 10 10 14 13 11 11 7 6 4 5 4 4 3 8 1 6 8 12 7 10 9 3 7 9 11 10 10 9 10 9 9 9 9 8 8 8
9 8 11 13 13 13 12 9 8 10 12 13 12 10 7 4 5 5 8 6 4 4 5 3 5 6 7 7 7 8 13 9 9 9 7 9 7 7 7 7 7 7 7 6
9 9 11 13 11 11 13 13 11 9 9 9 12 12 12 8 6 7 4 5 4 4 3 2 8 4 1 7 13 12 10 9 8 5 5 5 4 4 4 4 4 4 4 4
5 5 8 11 8 9 9 10 10 11 8 10 8 8 9 8 10 8 4 2 3 4 2 2 4 7 8 10 5 11 6 8 4 7 7 6 6 6 5 5 4 4 4 4
4 5 6 6 6 8 8 10 12 9 11 11 11 9 8 7 9 10 5 5 4 4 2 4 5 5 3 7 1 4 6 7 5 8 7 7 6 6 7 7 6 5 4 4
Wind_Direction
300 291 267 162 178 198 201 215 211 220 241 249 249 238 223 137 128 141 150 164 168 168 162 167 164 174 185 177 161 157 154 156 163 133 122 125 126 125 128 130 127 126 117 119
290 261 275 265 252 212 199 208 231 249 255 227 247 119 173 154 156 164 171 177 168 170 163 172 174 177 182 179 170 160 161 167 150 132 129 130 132 138 134 132 129 127 128 135
304 339 257 261 233 206 206 224 202 194 236 138 192 213 183 165 173 174 179 174 173 177 177 176 178 171 182 184 153 168 167 161 152 144 135 143 139 134 137 141 139 132 121 132
268 304 163 271 26 270 192 44 1 309 346 239 199 210 176 184 175 176 172 180 178 173 175 172 173 164 167 152 167 167 171 168 153 151 143 144 133 134 123 122 143 137 132 136
176 271 261 19 21 351 9 57 8 349 343 340 334 329 137 179 176 181 179 182 175 171 170 158 169 167 158 160 164 165 175 174 167 156 151 151 148 151 146 131 126 138 144 138
45 209 158 350 320 290 160 157 354 347 337 334 331 156 240 182 172 163 157 170 165 162 159 159 176 158 157 172 164 185 183 183 167 156 154 164 157 161 146 134 134 130 123 141
227 244 20 345 326 125 139 291 318 324 322 322 307 276 310 303 196 172 164 166 151 156 169 177 162 159 171 165 186 197 179 160 161 164 163 162 151 157 141 130 120 116 111 117
181 239 122 356 6 61 271 284 285 317 313 310 302 300 298 285 251 152 149 154 164 163 174 167 163 164 171 184 197 166 162 163 164 172 161 144 159 148 142 134 130 134 126 106
9 11 329 339 335 293 281 270 304 307 318 318 312 311 307 283 214 200 163 169 169 170 163 166 168 174 175 194 162 155 157 170 165 158 163 153 147 144 136 142 147 156 154 149
328 333 315 304 290 352 338 318 306 311 316 322 312 315 311 293 210 184 180 170 164 160 168 171 178 179 189 162 167 162 172 177 159 159 157 156 141 156 153 160 158 162 164 173
250 306 323 63 339 333 326 322 317 320 322 330 322 319 303 307 239 186 195 160 162 169 174 175 171 182 166 160 160 168 174 173 167 166 169 164 152 170 177 187 176 175 192 174
134 181 271 283 318 319 324 313 320 321 323 332 336 325 321 304 274 189 166 188 165 173 166 167 173 175 167 167 165 165 172 171 178 169 172 169 163 145 47 27 207 219 176 171
238 226 224 282 300 303 309 314 310 315 308 308 328 322 321 313 298 213 157 165 195 173 173 166 173 175 173 170 169 173 175 173 169 172 176 174 178 181 187 58 112 182 190 200
294 310 295 295 310 312 315 305 300 292 290 299 315 334 332 329 307 222 175 187 185 187 167 168 172 181 175 171 175 178 175 166 170 181 185 185 189 194 195 191 196 183 204 195
344 329 265 294 313 314 317 306 310 311 317 318 326 338 337 348 341 330 258 157 151 158 187 166 175 182 173 174 176 175 172 174 180 179 182 182 184 187 194 194 198 166 138 142
308 316 310 315 320 324 323 318 317 312 313 313 312 321 344 339 329 351 356 163 150 179 173 190 183 182 174 174 178 177 184 174 173 176 173 180 183 187 190 192 192 192 191 201
299 299 319 318 321 321 313 303 302 299 297 301 296 304 326 342 346 7 348 353 112 148 166 179 185 165 186 174 174 180 178 170 173 174 182 186 186 192 193 196 201 201 210 187
265 269 275 276 280 287 298 305 302 299 296 286 297 306 317 340 340 332 334 338 32 70 85 96 165 152 171 183 196 178 174 172 177 189 182 186 193 191 192 195 199 200 210 184
263 267 272 271 275 278 283 288 295 299 295 290 295 295 303 299 315 313 325 343 216 157 128 85 95 136 165 174 171 179 196 170 181 186 190 183 176 189 192 196 202 206 202 178
297 287 283 284 282 275 280 278 281 290 295 292 286 286 292 293 302 329 338 327 236 229 167 173 113 100 129 174 177 190 168 203 177 183 180 183 186 191 195 198 201 200 198 197
325 312 292 288 285 277 267 270 276 281 287 298 278 273 278 274 287 324 347 360 353 70 267 188 174 117 94 148 186 201 182 192 194 177 177 184 187 192 198 202 206 202 204 206
306 327 326 314 311 292 269 261 260 265 280 282 283 264 268 270 287 305 248 254 302 326 322 68 60 49 70 201 151 240 200 179 216 175 173 178 186 190 197 194 210 209 205 211
313 318 330 329 321 313 290 272 265 261 264 269 273 269 231 246 259 296 307 259 284 304 123 111 124 152 167 74 61 354 248 202 179 204 177 182 188 191 194 194 195 204 200 203
309 315 326 323 330 328 340 294 258 262 266 271 273 270 253 245 271 238 274 293 288 288 321 70 124 78 67 52 55 55 269 239 208 195 164 169 180 179 188 189 195 200 204 185
310 319 323 324 327 332 330 334 316 260 259 257 261 270 265 261 217 265 243 276 282 282 315 19 85 67 41 48 6 311 316 263 229 151 138 154 152 151 150 161 187 196 181 180
304 320 331 322 313 316 332 334 336 326 289 268 258 249 252 245 256 254 241 232 225 221 269 79 54 66 64 56 309 289 262 252 156 107 123 130 128 125 120 118 122 119 124 127
300 287 338 333 341 341 339 333 332 339 333 302 260 249 245 249 240 247 181 172 158 235 203 109 119 118 149 122 135 273 271 222 118 132 127 121 127 124 123 123 122 123 119 109